When you browse on this site, cookies collect data to enhance your experience and personalize the content and advertising you see.
Visit our Privacy Policy to learn more. By continuing to use the site, you agree to this use of cookies and data.
  • In Italy
  • List of Countries
  • For 7 days
  • Water Temperature
  • Satellite Maps
  • Weather Map
  • Weather Widgets
  • user-avatar
    Login

    Hourly Weather Krasnogvardejskoe

    Today, 22 January, Tuesday

    Time Temperature Precipitation Wind Pressure Humidity
    00:00 -3°C° 0 mm 4 mps 757 mmHg 84%
    01:00 -3°C° 0 mm 4 mps 757 mmHg 84%
    02:00 -4°C° 0 mm 4 mps 757 mmHg 83%
    03:00 -4°C° 0 mm 3 mps 758 mmHg 83%
    04:00 -4°C° 0 mm 3 mps 758 mmHg 82%
    05:00 -5°C° 0 mm 3 mps 758 mmHg 81%
    06:00 -4°C° 0 mm 2 mps 758 mmHg 81%
    07:00 -4°C° 0 mm 2 mps 758 mmHg 80%
    08:00 -4°C° 0 mm 3 mps 759 mmHg 79%
    09:00 -4°C° 0 mm 3 mps 759 mmHg 75%
    10:00 -2°C° 0 mm 3 mps 759 mmHg 71%
    11:00 -1°C° 0 mm 3 mps 759 mmHg 66%
    12:00 0°C° 0 mm 3 mps 759 mmHg 65%
    13:00 0°C° 0 mm 3 mps 759 mmHg 63%
    14:00 +1°C° 0 mm 3 mps 758 mmHg 64%
    15:00 0°C° 0 mm 3 mps 758 mmHg 69%
    16:00 -2°C° 0 mm 4 mps 758 mmHg 73%
    17:00 -3°C° 0 mm 4 mps 758 mmHg 77%
    18:00 -3°C° 0 mm 4 mps 757 mmHg 78%
    19:00 -3°C° 0 mm 4 mps 757 mmHg 78%
    20:00 -3°C° 0 mm 4 mps 757 mmHg 79%
    21:00 -3°C° 0 mm 4 mps 757 mmHg 79%
    22:00 -3°C° 0 mm 4 mps 756 mmHg 78%
    23:00 -2°C° 0 mm 3 mps 756 mmHg 78%

    Tomorrow, 23 January, Wednesday

    Time Temperature Precipitation Wind Pressure Humidity
    00:00 -1°C° 0 mm 3 mps 756 mmHg 79%
    01:00 -1°C° 0 mm 3 mps 755 mmHg 80%
    02:00 -1°C° 0 mm 3 mps 755 mmHg 81%
    03:00 -1°C° 0 mm 3 mps 754 mmHg 83%
    04:00 -1°C° 0 mm 3 mps 754 mmHg 85%
    05:00 -1°C° 0 mm 3 mps 753 mmHg 87%
    06:00 -1°C° 0 mm 3 mps 753 mmHg 86%
    07:00 0°C° 0 mm 3 mps 753 mmHg 86%
    08:00 0°C° 0 mm 3 mps 752 mmHg 85%
    09:00 +1°C° 0 mm 4 mps 752 mmHg 78%
    10:00 +5°C° 0 mm 4 mps 752 mmHg 71%
    11:00 +7°C° 0 mm 5 mps 752 mmHg 64%
    12:00 +7°C° 0 mm 5 mps 751 mmHg 65%
    13:00 +8°C° 0 mm 6 mps 750 mmHg 66%
    14:00 +8°C° 0 mm 6 mps 750 mmHg 67%
    15:00 +7°C° 0 mm 6 mps 750 mmHg 70%
    16:00 +7°C° 0 mm 6 mps 749 mmHg 74%
    17:00 +6°C° 0 mm 5 mps 749 mmHg 77%
    18:00 +6°C° 0 mm 5 mps 749 mmHg 75%
    19:00 +6°C° 0 mm 5 mps 749 mmHg 73%
    20:00 +6°C° 0 mm 5 mps 749 mmHg 71%
    21:00 +6°C° 0 mm 5 mps 749 mmHg 71%
    22:00 +6°C° 0 mm 5 mps 749 mmHg 70%
    23:00 +6°C° 0 mm 5 mps 749 mmHg 70%

    Day after tomorrow, 24 January, Thursday

    Time Temperature Precipitation Wind Pressure Humidity
    00:00 +6°C° 0 mm 4 mps 749 mmHg 71%
    01:00 +6°C° 0 mm 4 mps 749 mmHg 72%
    02:00 +6°C° 0 mm 4 mps 749 mmHg 73%
    03:00 +6°C° 0 mm 4 mps 748 mmHg 74%
    04:00 +6°C° 0 mm 4 mps 748 mmHg 76%
    05:00 +7°C° 0 mm 3 mps 748 mmHg 77%
    06:00 +7°C° 0 mm 3 mps 748 mmHg 76%
    07:00 +7°C° 0 mm 3 mps 748 mmHg 76%
    08:00 +7°C° 0 mm 3 mps 747 mmHg 75%
    09:00 +8°C° 0 mm 3 mps 747 mmHg 70%
    10:00 +10°C° 0 mm 3 mps 747 mmHg 65%
    11:00 +12°C° 0 mm 2 mps 747 mmHg 60%
    12:00 +11°C° 0 mm 3 mps 747 mmHg 59%
    13:00 +12°C° 0 mm 3 mps 746 mmHg 57%
    14:00 +12°C° 0 mm 3 mps 746 mmHg 56%
    15:00 +11°C° 0 mm 3 mps 745 mmHg 61%
    16:00 +10°C° 0 mm 3 mps 745 mmHg 66%
    17:00 +8°C° 0 mm 3 mps 745 mmHg 71%
    18:00 +8°C° 0 mm 3 mps 745 mmHg 71%
    19:00 +8°C° 0 mm 3 mps 745 mmHg 71%
    20:00 +7°C° 0 mm 3 mps 745 mmHg 71%
    21:00 +7°C° 0 mm 3 mps 745 mmHg 71%
    22:00 +7°C° 0 mm 3 mps 745 mmHg 71%
    23:00 +7°C° 0 mm 2 mps 745 mmHg 71%

    25 January, Friday

    Time Temperature Precipitation Wind Pressure Humidity
    00:00 +7°C° 0 mm 2 mps 745 mmHg 71%
    01:00 +7°C° 0 mm 1 mps 745 mmHg 71%
    02:00 +7°C° 0 mm 1 mps 745 mmHg 71%
    03:00 +7°C° 0 mm 1 mps 745 mmHg 70%
    04:00 +7°C° 0 mm 1 mps 745 mmHg 69%
    05:00 +7°C° 0 mm 1 mps 745 mmHg 68%
    06:00 +6°C° 0 mm 2 mps 745 mmHg 69%
    07:00 +7°C° 0 mm 2 mps 746 mmHg 69%
    08:00 +7°C° 0 mm 2 mps 746 mmHg 70%
    09:00 +7°C° 0.2 mm 2 mps 746 mmHg 73%
    10:00 +9°C° 0.2 mm 1 mps 747 mmHg 75%
    11:00 +9°C° 0.2 mm 1 mps 747 mmHg 78%
    12:00 +10°C° 0 mm 1 mps 747 mmHg 74%
    13:00 +11°C° 0 mm 1 mps 747 mmHg 71%
    14:00 +12°C° 0 mm 1 mps 747 mmHg 67%
    15:00 +11°C° 0 mm 1 mps 748 mmHg 71%
    16:00 +9°C° 0 mm 2 mps 748 mmHg 75%
    17:00 +8°C° 0 mm 2 mps 748 mmHg 79%
    18:00 +8°C° 0 mm 2 mps 748 mmHg 79%
    19:00 +7°C° 0 mm 2 mps 748 mmHg 79%
    20:00 +7°C° 0 mm 2 mps 748 mmHg 79%
    21:00 +7°C° 0 mm 2 mps 748 mmHg 78%
    22:00 +7°C° 0 mm 2 mps 748 mmHg 77%
    23:00 +6°C° 0 mm 2 mps 748 mmHg 76%

    26 January, Saturday

    Time Temperature Precipitation Wind Pressure Humidity
    00:00 +6°C° 0 mm 2 mps 748 mmHg 76%
    01:00 +6°C° 0 mm 2 mps 747 mmHg 76%
    02:00 +6°C° 0 mm 2 mps 747 mmHg 77%
    03:00 +5°C° 0 mm 3 mps 747 mmHg 79%
    04:00 +5°C° 0 mm 3 mps 746 mmHg 81%
    05:00 +4°C° 0 mm 3 mps 746 mmHg 83%
    06:00 +5°C° 0 mm 3 mps 746 mmHg 84%
    07:00 +5°C° 0 mm 3 mps 746 mmHg 86%
    08:00 +6°C° 0 mm 2 mps 746 mmHg 88%
    09:00 +7°C° 0 mm 2 mps 746 mmHg 82%
    10:00 +9°C° 0 mm 2 mps 746 mmHg 77%
    11:00 +10°C° 0 mm 2 mps 746 mmHg 72%
    12:00 +12°C° 0 mm 2 mps 746 mmHg 70%
    13:00 +12°C° 0 mm 2 mps 745 mmHg 69%
    14:00 +12°C° 0 mm 1 mps 745 mmHg 67%
    15:00 +10°C° 0 mm 2 mps 745 mmHg 73%
    16:00 +9°C° 0 mm 2 mps 745 mmHg 78%
    17:00 +8°C° 0 mm 3 mps 745 mmHg 84%
    18:00 +8°C° 0 mm 3 mps 745 mmHg 84%
    19:00 +8°C° 0 mm 2 mps 745 mmHg 85%
    20:00 +7°C° 0 mm 2 mps 745 mmHg 86%
    21:00 +7°C° 0.1 mm 2 mps 745 mmHg 86%
    22:00 +7°C° 0.1 mm 2 mps 745 mmHg 87%
    23:00 +7°C° 0.1 mm 2 mps 745 mmHg 88%

    27 January, Sunday

    Time Temperature Precipitation Wind Pressure Humidity
    00:00 +6°C° 0.1 mm 2 mps 745 mmHg 89%
    01:00 +7°C° 0.1 mm 1 mps 745 mmHg 89%
    02:00 +7°C° 0.1 mm 1 mps 745 mmHg 90%
    03:00 +7°C° 0.1 mm 1 mps 745 mmHg 91%
    04:00 +6°C° 0.1 mm 1 mps 745 mmHg 93%
    05:00 +6°C° 0.1 mm 1 mps 745 mmHg 94%
    06:00 +6°C° 0.1 mm 1 mps 745 mmHg 94%
    07:00 +6°C° 0.1 mm 1 mps 746 mmHg 94%
    08:00 +5°C° 0.1 mm 1 mps 746 mmHg 94%
    09:00 +5°C° 0.1 mm 2 mps 746 mmHg 91%
    10:00 +5°C° 0.1 mm 2 mps 746 mmHg 89%
    11:00 +5°C° 0.1 mm 2 mps 746 mmHg 87%
    12:00 +4°C° 0.1 mm 3 mps 746 mmHg 86%
    13:00 +4°C° 0.1 mm 3 mps 746 mmHg 85%
    14:00 +4°C° 0.1 mm 3 mps 746 mmHg 84%
    15:00 +4°C° 0 mm 4 mps 746 mmHg 86%
    16:00 +3°C° 0 mm 4 mps 747 mmHg 87%
    17:00 +1°C° 0 mm 5 mps 747 mmHg 89%
    18:00 +1°C° 0 mm 5 mps 747 mmHg 89%
    19:00 +1°C° 0 mm 5 mps 748 mmHg 89%
    20:00 +1°C° 0 mm 5 mps 748 mmHg 90%
    21:00 -1°C° 0.1 mm 6 mps 748 mmHg 89%
    22:00 -1°C° 0.1 mm 6 mps 749 mmHg 89%
    23:00 -2°C° 0.1 mm 7 mps 749 mmHg 89%
    Show more